Weather in Mangush

Ukraine / Donetsk Region     47°03′24″N   37°18′28″E
temp.,
°C
wind,
m/s
gust,
m/s
humid.,
%
clouds,
%
prec.,
mm/h
press.,
hPa
HPBL,
m
18 may, tue
tue1800:00+15ssw3596100 0.0 1008154
03:00+15sw3794100 0.0 1008222
06:00+15ssw4892100 0.0 1008374
09:00+17ssw678069 0.2 1009751
12:00+18ssw787619 0.3 1009842
15:00+19ssw810674 0.3 10091048
18:00+18ssw697270 0.0 1008555
21:00+15ssw7128675 0.0 1008431
19 may, wed
wed1900:00+15ssw61192100 0.1 1007567
03:00+14w5989100 0.9 1007455
06:00+14s4785100 0.1 1007390
09:00+16ssw6874100 0.3 1008835
12:00+18ssw91063100 0.2 10091245
15:00+18sw10126086 0.2 10091482
18:00+14sw81285100 0.6 1009923
21:00+15sw101584100 0.9 1010893
20 may, thu
thu2000:00+14wsw814843 0.3 1010784
03:00+14wsw715840 0.3 1011776
06:00+14sw612884 0.1 1012713
09:00+18sw7106711 0.1 10131025
12:00+20ssw67565 0.0 10131185
15:00+19s555569 0.0 1013702
18:00+19se33542 0.0 1013299
21:00+15ene466423 0.0 101378
21 may, fri
fri2100:00+15e4887100 0.0 1012138
03:00+15ene5108562 0.0 1011205
06:00+15ene6108187 0.0 1011301
09:00+19e7967100 0.0 1010447
12:00+21e81063100 0.1 1010457
15:00+23e6859100 0.1 1010505
18:00+23ene69666 0.0 1009428
21:00+19ene598276 0.0 1009156
22 may, sat
sat2200:00+18ne48890 0.0 1008125
03:00+17ene58950 0.0 1007151
06:00+17ene598793 0.0 1008220
09:00+20e6770100 0.0 1008352
12:00+22ese6666100 0.0 1010365
15:00+21ene91173100 0.0 1008223
18:00+23e387399 0.0 1008347
21:00+20ne2283100 0.0 101017